Погода в Даламане

Турция     36°45′56″N   28°48′25″E
темп.,
°C
ветер,
м/с
пор.,
м/с
влажн.,
%
обл.,
%
осадки,
мм/ч
давл.,
гПа
погр.,
м
15 июня, вт
вт1500:00+18с22825 0.0 101070
03:00+17ссв22840 0.0 101058
06:00+16с22780 0.0 101057
09:00+22з12525 0.0 1011563
12:00+24ююз54496 0.0 10111195
15:00+25юз66402 0.0 10101262
18:00+24зюз65460 0.0 1009903
21:00+19з34664 0.0 1010138
16 июня, ср
ср1600:00+17с2268100 0.0 101068
03:00+18с226649 0.1 101072
06:00+15ссз22735 0.3 101065
09:00+21зсз23474 0.3 1010603
12:00+25зюз66382 0.0 10111797
15:00+26з98411 0.0 10101447
18:00+25зюз98450 0.0 1010979
21:00+21зсз45670 0.0 101293
17 июня, чт
чт1700:00+19ссв22730 0.0 101443
03:00+18с22640 0.0 101437
06:00+18с22600 0.0 101448
09:00+25ю01410 0.0 1015482
12:00+26ююз53410 0.0 1015769
15:00+27ююз45460 0.0 1014620
18:00+24ююв45610 0.0 1015468
21:00+21в11810 0.0 101512
18 июня, пт
пт1800:00+20ссз22740 0.0 101536
03:00+20с22710 0.0 101316
06:00+20с11610 0.0 101325
09:00+27з12420 0.0 1012371
12:00+28юз54450 0.0 1012897
15:00+29юз65440 0.0 1011836
18:00+27юз57490 0.0 1010510
21:00+22всв11790 0.0 101020
19 июня, сб
сб1900:00+21с11730 0.0 101020
03:00+21сз11630 0.0 100912
06:00+21ссв11600 0.0 100811
09:00+28зюз11410 0.0 1008378
12:00+28юз43420 0.0 1008731
15:00+28ю44460 0.0 1007637
18:00+27юз33560 0.0 1008387
21:00+22з11800 0.0 100823